iso_date,Year,Hour,Min,DOY,POS_DOY,Lat,Lon,BP,Ts,Ta,has_bp,has_ts,has_ta,BuoyID,Buoy_Type,Buoy_Owner,Logistics,Hemisphere
2020-10-03T06:00:00Z,2020,6,0,277.25,277.25,54.653,-56.11,1015.4,3.72,-999.0,yes,yes,no,300234067975260,Gy,AOML,AMUNDSEN,North
2020-10-03T07:00:02Z,2020,7,0,277.2917,277.2917,54.642,-56.088,1014.0,3.72,-999.0,yes,yes,no,300234067975260,Gy,AOML,AMUNDSEN,North
2020-10-03T07:59:57Z,2020,8,0,277.3333,277.3333,54.629,-56.066,1013.2,3.71,-999.0,yes,yes,no,300234067975260,Gy,AOML,AMUNDSEN,North
2020-10-03T09:00:00Z,2020,9,0,277.375,277.375,54.617,-56.045,1012.0,3.76,-999.0,yes,yes,no,300234067975260,Gy,AOML,AMUNDSEN,North
2020-10-03T10:00:02Z,2020,10,0,277.4167,277.4167,54.604,-56.026,1010.2,3.82,-999.0,yes,yes,no,300234067975260,Gy,AOML,AMUNDSEN,North
2020-10-03T10:59:57Z,2020,11,0,277.4583,277.4583,54.593,-56.009,1008.7,3.82,-999.0,yes,yes,no,300234067975260,Gy,AOML,AMUNDSEN,North
2020-10-03T12:00:00Z,2020,12,0,277.5,277.5,54.582,-55.994,1007.2,3.8,-999.0,yes,yes,no,300234067975260,Gy,AOML,AMUNDSEN,North
2020-10-03T13:00:02Z,2020,13,0,277.5417,277.5417,54.573,-55.978,1006.2,3.78,-999.0,yes,yes,no,300234067975260,Gy,AOML,AMUNDSEN,North
2020-10-03T13:59:57Z,2020,14,0,277.5833,277.5833,54.564,-55.963,1005.2,3.79,-999.0,yes,yes,no,300234067975260,Gy,AOML,AMUNDSEN,North
2020-10-03T15:00:00Z,2020,15,0,277.625,277.625,54.555,-55.946,1004.4,3.79,-999.0,yes,yes,no,300234067975260,Gy,AOML,AMUNDSEN,North
2020-10-03T16:00:02Z,2020,16,0,277.6667,277.6667,54.547,-55.931,1003.9,3.78,-999.0,yes,yes,no,300234067975260,Gy,AOML,AMUNDSEN,North
2020-10-03T16:59:57Z,2020,17,0,277.7083,277.7083,54.539,-55.915,1003.6,3.76,-999.0,yes,yes,no,300234067975260,Gy,AOML,AMUNDSEN,North
2020-10-03T18:00:00Z,2020,18,0,277.75,277.75,54.53,-55.9,1003.4,3.74,-999.0,yes,yes,no,300234067975260,Gy,AOML,AMUNDSEN,North
2020-10-03T19:00:02Z,2020,19,0,277.7917,277.7917,54.519,-55.887,1003.7,3.7,-999.0,yes,yes,no,300234067975260,Gy,AOML,AMUNDSEN,North
2020-10-03T19:59:57Z,2020,20,0,277.8333,277.8333,54.507,-55.876,1004.2,3.64,-999.0,yes,yes,no,300234067975260,Gy,AOML,AMUNDSEN,North
2020-10-03T21:00:00Z,2020,21,0,277.875,277.875,54.494,-55.874,1005.6,3.48,-999.0,yes,yes,no,300234067975260,Gy,AOML,AMUNDSEN,North
2020-10-03T22:00:02Z,2020,22,0,277.9167,277.9167,54.48,-55.879,1008.0,3.31,-999.0,yes,yes,no,300234067975260,Gy,AOML,AMUNDSEN,North
2020-10-03T22:59:57Z,2020,23,0,277.9583,277.9583,54.468,-55.887,1010.2,3.19,-999.0,yes,yes,no,300234067975260,Gy,AOML,AMUNDSEN,North
2020-10-04T00:00:00Z,2020,0,0,278.0,278.0,54.459,-55.894,1011.7,3.15,-999.0,yes,yes,no,300234067975260,Gy,AOML,AMUNDSEN,North
2020-10-04T01:00:02Z,2020,1,0,278.0417,278.0417,54.452,-55.9,1012.9,3.11,-999.0,yes,yes,no,300234067975260,Gy,AOML,AMUNDSEN,North
2020-10-04T01:59:57Z,2020,2,0,278.0833,278.0833,54.447,-55.905,1013.8,3.1,-999.0,yes,yes,no,300234067975260,Gy,AOML,AMUNDSEN,North
2020-10-04T03:00:00Z,2020,3,0,278.125,278.125,54.442,-55.909,1015.0,3.09,-999.0,yes,yes,no,300234067975260,Gy,AOML,AMUNDSEN,North
2020-10-04T04:00:02Z,2020,4,0,278.1667,278.1667,54.439,-55.91,1015.8,3.08,-999.0,yes,yes,no,300234067975260,Gy,AOML,AMUNDSEN,North
2020-10-04T04:59:57Z,2020,5,0,278.2083,278.2083,54.439,-55.91,1016.5,3.08,-999.0,yes,yes,no,300234067975260,Gy,AOML,AMUNDSEN,North
2020-10-04T06:00:00Z,2020,6,0,278.25,278.25,54.439,-55.908,1017.3,3.07,-999.0,yes,yes,no,300234067975260,Gy,AOML,AMUNDSEN,North
2020-10-04T07:00:02Z,2020,7,0,278.2917,278.2917,54.437,-55.903,1018.1,3.06,-999.0,yes,yes,no,300234067975260,Gy,AOML,AMUNDSEN,North
2020-10-04T07:59:57Z,2020,8,0,278.3333,278.3333,54.435,-55.897,1018.5,3.06,-999.0,yes,yes,no,300234067975260,Gy,AOML,AMUNDSEN,North
2020-10-04T09:00:00Z,2020,9,0,278.375,278.375,54.431,-55.89,1018.9,3.06,-999.0,yes,yes,no,300234067975260,Gy,AOML,AMUNDSEN,North
2020-10-04T10:00:02Z,2020,10,0,278.4167,278.4167,54.425,-55.882,1019.4,3.08,-999.0,yes,yes,no,300234067975260,Gy,AOML,AMUNDSEN,North
2020-10-04T10:59:57Z,2020,11,0,278.4583,278.4583,54.416,-55.873,1019.9,3.1,-999.0,yes,yes,no,300234067975260,Gy,AOML,AMUNDSEN,North
2020-10-04T12:00:00Z,2020,12,0,278.5,278.5,54.405,-55.866,1020.5,3.12,-999.0,yes,yes,no,300234067975260,Gy,AOML,AMUNDSEN,North
2020-10-04T13:00:02Z,2020,13,0,278.5417,278.5417,54.391,-55.863,1021.2,3.13,-999.0,yes,yes,no,300234067975260,Gy,AOML,AMUNDSEN,North
2020-10-04T13:59:57Z,2020,14,0,278.5833,278.5833,54.379,-55.867,1021.5,3.13,-999.0,yes,yes,no,300234067975260,Gy,AOML,AMUNDSEN,North
2020-10-04T15:00:00Z,2020,15,0,278.625,278.625,54.368,-55.875,1021.5,3.14,-999.0,yes,yes,no,300234067975260,Gy,AOML,AMUNDSEN,North
2020-10-04T16:00:02Z,2020,16,0,278.6667,278.6667,54.359,-55.883,1021.3,3.16,-999.0,yes,yes,no,300234067975260,Gy,AOML,AMUNDSEN,North
2020-10-04T16:59:57Z,2020,17,0,278.7083,278.7083,54.353,-55.893,1021.2,3.19,-999.0,yes,yes,no,300234067975260,Gy,AOML,AMUNDSEN,North
2020-10-04T18:00:00Z,2020,18,0,278.75,278.75,54.349,-55.901,1021.0,3.21,-999.0,yes,yes,no,300234067975260,Gy,AOML,AMUNDSEN,North
2020-10-04T19:00:02Z,2020,19,0,278.7917,278.7917,54.347,-55.908,1021.2,3.26,-999.0,yes,yes,no,300234067975260,Gy,AOML,AMUNDSEN,North
2020-10-04T19:59:57Z,2020,20,0,278.8333,278.8333,54.346,-55.913,1021.0,3.22,-999.0,yes,yes,no,300234067975260,Gy,AOML,AMUNDSEN,North
2020-10-04T21:00:00Z,2020,21,0,278.875,278.875,54.345,-55.915,1021.1,3.17,-999.0,yes,yes,no,300234067975260,Gy,AOML,AMUNDSEN,North
2020-10-04T22:00:02Z,2020,22,0,278.9167,278.9167,54.342,-55.915,1021.0,3.12,-999.0,yes,yes,no,300234067975260,Gy,AOML,AMUNDSEN,North
2020-10-04T22:59:57Z,2020,23,0,278.9583,278.9583,54.338,-55.913,1020.6,3.11,-999.0,yes,yes,no,300234067975260,Gy,AOML,AMUNDSEN,North
2020-10-05T00:00:00Z,2020,0,0,279.0,279.0,54.332,-55.91,1020.6,3.08,-999.0,yes,yes,no,300234067975260,Gy,AOML,AMUNDSEN,North
2020-10-05T01:00:02Z,2020,1,0,279.0417,279.0417,54.323,-55.907,1021.3,3.09,-999.0,yes,yes,no,300234067975260,Gy,AOML,AMUNDSEN,North
2020-10-05T01:59:57Z,2020,2,0,279.0833,279.0833,54.312,-55.906,1021.4,3.07,-999.0,yes,yes,no,300234067975260,Gy,AOML,AMUNDSEN,North
2020-10-05T03:00:00Z,2020,3,0,279.125,279.125,54.301,-55.908,1021.4,3.05,-999.0,yes,yes,no,300234067975260,Gy,AOML,AMUNDSEN,North
2020-10-05T04:00:02Z,2020,4,0,279.1667,279.1667,54.289,-55.915,1021.5,3.05,-999.0,yes,yes,no,300234067975260,Gy,AOML,AMUNDSEN,North
2020-10-05T04:59:57Z,2020,5,0,279.2083,279.2083,54.279,-55.925,1021.4,3.11,-999.0,yes,yes,no,300234067975260,Gy,AOML,AMUNDSEN,North
2020-10-05T06:00:00Z,2020,6,0,279.25,279.25,54.271,-55.939,1021.0,3.11,-999.0,yes,yes,no,300234067975260,Gy,AOML,AMUNDSEN,North
2020-10-05T07:00:02Z,2020,7,0,279.2917,279.2917,54.265,-55.954,1021.1,3.12,-999.0,yes,yes,no,300234067975260,Gy,AOML,AMUNDSEN,North
2020-10-05T07:59:57Z,2020,8,0,279.3333,279.3333,54.261,-55.97,1021.2,3.1,-999.0,yes,yes,no,300234067975260,Gy,AOML,AMUNDSEN,North
2020-10-05T09:00:00Z,2020,9,0,279.375,279.375,54.257,-55.985,1021.2,3.08,-999.0,yes,yes,no,300234067975260,Gy,AOML,AMUNDSEN,North
2020-10-05T10:00:02Z,2020,10,0,279.4167,279.4167,54.254,-55.997,1020.9,3.09,-999.0,yes,yes,no,300234067975260,Gy,AOML,AMUNDSEN,North
2020-10-05T10:59:57Z,2020,11,0,279.4583,279.4583,54.251,-56.008,1020.8,3.18,-999.0,yes,yes,no,300234067975260,Gy,AOML,AMUNDSEN,North
2020-10-05T12:00:00Z,2020,12,0,279.5,279.5,54.249,-56.017,1020.8,3.23,-999.0,yes,yes,no,300234067975260,Gy,AOML,AMUNDSEN,North
2020-10-05T13:00:02Z,2020,13,0,279.5417,279.5417,54.246,-56.023,1020.7,3.34,-999.0,yes,yes,no,300234067975260,Gy,AOML,AMUNDSEN,North
2020-10-05T13:59:57Z,2020,14,0,279.5833,279.5833,54.241,-56.027,1020.5,3.38,-999.0,yes,yes,no,300234067975260,Gy,AOML,AMUNDSEN,North
2020-10-05T15:00:00Z,2020,15,0,279.625,279.625,54.236,-56.031,1020.2,3.51,-999.0,yes,yes,no,300234067975260,Gy,AOML,AMUNDSEN,North
2020-10-05T16:00:02Z,2020,16,0,279.6667,279.6667,54.23,-56.034,1020.0,3.54,-999.0,yes,yes,no,300234067975260,Gy,AOML,AMUNDSEN,North
2020-10-05T16:59:57Z,2020,17,0,279.7083,279.7083,54.224,-56.037,1019.6,3.5,-999.0,yes,yes,no,300234067975260,Gy,AOML,AMUNDSEN,North
2020-10-05T18:00:00Z,2020,18,0,279.75,279.75,54.219,-56.042,1019.3,3.45,-999.0,yes,yes,no,300234067975260,Gy,AOML,AMUNDSEN,North
2020-10-05T19:00:02Z,2020,19,0,279.7917,279.7917,54.213,-56.048,1019.1,3.56,-999.0,yes,yes,no,300234067975260,Gy,AOML,AMUNDSEN,North
2020-10-05T19:59:57Z,2020,20,0,279.8333,279.8333,54.207,-56.057,1019.3,3.65,-999.0,yes,yes,no,300234067975260,Gy,AOML,AMUNDSEN,North
2020-10-05T21:00:00Z,2020,21,0,279.875,279.875,54.202,-56.068,1019.1,3.66,-999.0,yes,yes,no,300234067975260,Gy,AOML,AMUNDSEN,North
2020-10-05T22:00:02Z,2020,22,0,279.9167,279.9167,54.199,-56.08,1019.3,3.64,-999.0,yes,yes,no,300234067975260,Gy,AOML,AMUNDSEN,North
2020-10-05T22:59:57Z,2020,23,0,279.9583,279.9583,54.198,-56.092,1019.5,3.52,-999.0,yes,yes,no,300234067975260,Gy,AOML,AMUNDSEN,North
2020-10-06T00:00:00Z,2020,0,0,280.0,280.0,54.197,-56.101,1019.7,3.5,-999.0,yes,yes,no,300234067975260,Gy,AOML,AMUNDSEN,North
2020-10-06T01:00:02Z,2020,1,0,280.0417,280.0417,54.198,-56.106,1019.7,3.56,-999.0,yes,yes,no,300234067975260,Gy,AOML,AMUNDSEN,North
2020-10-06T01:59:57Z,2020,2,0,280.0833,280.0833,54.198,-56.108,1019.5,3.64,-999.0,yes,yes,no,300234067975260,Gy,AOML,AMUNDSEN,North
2020-10-06T03:00:00Z,2020,3,0,280.125,280.125,54.196,-56.109,1019.4,3.7,-999.0,yes,yes,no,300234067975260,Gy,AOML,AMUNDSEN,North
2020-10-06T04:00:02Z,2020,4,0,280.1667,280.1667,54.195,-56.113,1019.2,3.77,-999.0,yes,yes,no,300234067975260,Gy,AOML,AMUNDSEN,North
2020-10-06T04:59:57Z,2020,5,0,280.2083,280.2083,54.195,-56.116,1019.1,3.79,-999.0,yes,yes,no,300234067975260,Gy,AOML,AMUNDSEN,North
2020-10-06T06:00:00Z,2020,6,0,280.25,280.25,54.195,-56.121,1019.0,3.7,-999.0,yes,yes,no,300234067975260,Gy,AOML,AMUNDSEN,North
2020-10-06T07:00:02Z,2020,7,0,280.2917,280.2917,54.195,-56.125,1018.8,3.55,-999.0,yes,yes,no,300234067975260,Gy,AOML,AMUNDSEN,North
2020-10-06T07:59:57Z,2020,8,0,280.3333,280.3333,54.195,-56.13,1018.6,3.4,-999.0,yes,yes,no,300234067975260,Gy,AOML,AMUNDSEN,North
2020-10-06T09:00:00Z,2020,9,0,280.375,280.375,54.195,-56.135,1018.3,3.41,-999.0,yes,yes,no,300234067975260,Gy,AOML,AMUNDSEN,North
2020-10-06T10:00:02Z,2020,10,0,280.4167,280.4167,54.194,-56.14,1017.7,3.42,-999.0,yes,yes,no,300234067975260,Gy,AOML,AMUNDSEN,North
2020-10-06T10:59:57Z,2020,11,0,280.4583,280.4583,54.193,-56.145,1017.2,3.42,-999.0,yes,yes,no,300234067975260,Gy,AOML,AMUNDSEN,North
2020-10-06T12:00:00Z,2020,12,0,280.5,280.5,54.193,-56.149,1016.8,3.46,-999.0,yes,yes,no,300234067975260,Gy,AOML,AMUNDSEN,North
2020-10-06T13:00:02Z,2020,13,0,280.5417,280.5417,54.193,-56.151,1016.3,3.52,-999.0,yes,yes,no,300234067975260,Gy,AOML,AMUNDSEN,North
2020-10-06T13:59:57Z,2020,14,0,280.5833,280.5833,54.193,-56.154,1015.3,3.6,-999.0,yes,yes,no,300234067975260,Gy,AOML,AMUNDSEN,North
2020-10-06T15:00:00Z,2020,15,0,280.625,280.625,54.194,-56.157,1014.0,3.56,-999.0,yes,yes,no,300234067975260,Gy,AOML,AMUNDSEN,North
2020-10-06T16:00:02Z,2020,16,0,280.6667,280.6667,54.194,-56.158,1012.9,3.72,-999.0,yes,yes,no,300234067975260,Gy,AOML,AMUNDSEN,North
2020-10-06T16:59:57Z,2020,17,0,280.7083,280.7083,54.195,-56.158,1011.6,3.79,-999.0,yes,yes,no,300234067975260,Gy,AOML,AMUNDSEN,North
2020-10-06T18:00:00Z,2020,18,0,280.75,280.75,54.195,-56.159,1010.9,3.76,-999.0,yes,yes,no,300234067975260,Gy,AOML,AMUNDSEN,North
2020-10-06T19:00:02Z,2020,19,0,280.7917,280.7917,54.195,-56.16,1010.1,3.77,-999.0,yes,yes,no,300234067975260,Gy,AOML,AMUNDSEN,North
2020-10-06T19:59:57Z,2020,20,0,280.8333,280.8333,54.197,-56.163,1009.2,3.77,-999.0,yes,yes,no,300234067975260,Gy,AOML,AMUNDSEN,North
2020-10-06T21:00:00Z,2020,21,0,280.875,280.875,54.199,-56.166,1008.0,3.78,-999.0,yes,yes,no,300234067975260,Gy,AOML,AMUNDSEN,North
2020-10-06T22:00:02Z,2020,22,0,280.9167,280.9167,54.203,-56.169,1007.2,3.78,-999.0,yes,yes,no,300234067975260,Gy,AOML,AMUNDSEN,North
2020-10-06T22:59:57Z,2020,23,0,280.9583,280.9583,54.207,-56.171,1006.1,3.75,-999.0,yes,yes,no,300234067975260,Gy,AOML,AMUNDSEN,North
2020-10-07T00:00:00Z,2020,0,0,281.0,281.0,54.211,-56.172,1005.3,3.76,-999.0,yes,yes,no,300234067975260,Gy,AOML,AMUNDSEN,North
2020-10-07T01:00:02Z,2020,1,0,281.0417,281.0417,54.214,-56.171,1004.8,3.76,-999.0,yes,yes,no,300234067975260,Gy,AOML,AMUNDSEN,North
2020-10-07T01:59:57Z,2020,2,0,281.0833,281.0833,54.216,-56.168,1004.4,3.77,-999.0,yes,yes,no,300234067975260,Gy,AOML,AMUNDSEN,North
2020-10-07T03:00:00Z,2020,3,0,281.125,281.125,54.218,-56.166,1003.9,3.78,-999.0,yes,yes,no,300234067975260,Gy,AOML,AMUNDSEN,North
2020-10-07T04:00:02Z,2020,4,0,281.1667,281.1667,54.217,-56.163,1003.5,3.78,-999.0,yes,yes,no,300234067975260,Gy,AOML,AMUNDSEN,North
2020-10-07T04:59:57Z,2020,5,0,281.2083,281.2083,54.217,-56.163,1003.1,3.78,-999.0,yes,yes,no,300234067975260,Gy,AOML,AMUNDSEN,North
2020-10-07T06:00:00Z,2020,6,0,281.25,281.25,54.217,-56.163,1002.9,3.79,-999.0,yes,yes,no,300234067975260,Gy,AOML,AMUNDSEN,North
2020-10-07T07:00:02Z,2020,7,0,281.2917,281.2917,54.218,-56.165,1002.5,3.78,-999.0,yes,yes,no,300234067975260,Gy,AOML,AMUNDSEN,North
2020-10-07T07:59:57Z,2020,8,0,281.3333,281.3333,54.22,-56.167,1002.3,3.78,-999.0,yes,yes,no,300234067975260,Gy,AOML,AMUNDSEN,North
2020-10-07T09:00:00Z,2020,9,0,281.375,281.375,54.225,-56.17,1002.1,3.8,-999.0,yes,yes,no,300234067975260,Gy,AOML,AMUNDSEN,North
2020-10-07T10:00:02Z,2020,10,0,281.4167,281.4167,54.229,-56.173,1001.9,3.81,-999.0,yes,yes,no,300234067975260,Gy,AOML,AMUNDSEN,North
2020-10-07T10:59:57Z,2020,11,0,281.4583,281.4583,54.235,-56.175,1001.8,3.81,-999.0,yes,yes,no,300234067975260,Gy,AOML,AMUNDSEN,North
2020-10-07T12:00:00Z,2020,12,0,281.5,281.5,54.24,-56.177,1001.9,3.81,-999.0,yes,yes,no,300234067975260,Gy,AOML,AMUNDSEN,North
2020-10-07T13:00:02Z,2020,13,0,281.5417,281.5417,54.245,-56.176,1001.8,3.83,-999.0,yes,yes,no,300234067975260,Gy,AOML,AMUNDSEN,North
2020-10-07T13:59:57Z,2020,14,0,281.5833,281.5833,54.248,-56.174,1001.9,3.84,-999.0,yes,yes,no,300234067975260,Gy,AOML,AMUNDSEN,North
2020-10-07T15:00:00Z,2020,15,0,281.625,281.625,54.252,-56.169,1001.6,3.87,-999.0,yes,yes,no,300234067975260,Gy,AOML,AMUNDSEN,North
2020-10-07T16:00:02Z,2020,16,0,281.6667,281.6667,54.254,-56.163,1001.2,3.89,-999.0,yes,yes,no,300234067975260,Gy,AOML,AMUNDSEN,North
2020-10-07T16:59:57Z,2020,17,0,281.7083,281.7083,54.256,-56.159,1001.2,3.93,-999.0,yes,yes,no,300234067975260,Gy,AOML,AMUNDSEN,North
2020-10-07T18:00:00Z,2020,18,0,281.75,281.75,54.258,-56.155,1001.4,3.93,-999.0,yes,yes,no,300234067975260,Gy,AOML,AMUNDSEN,North
2020-10-07T19:00:02Z,2020,19,0,281.7917,281.7917,54.26,-56.15,1001.7,3.94,-999.0,yes,yes,no,300234067975260,Gy,AOML,AMUNDSEN,North
2020-10-07T19:59:57Z,2020,20,0,281.8333,281.8333,54.262,-56.145,1001.5,3.92,-999.0,yes,yes,no,300234067975260,Gy,AOML,AMUNDSEN,North
2020-10-07T21:00:00Z,2020,21,0,281.875,281.875,54.263,-56.14,1001.6,3.92,-999.0,yes,yes,no,300234067975260,Gy,AOML,AMUNDSEN,North
2020-10-07T22:00:02Z,2020,22,0,281.9167,281.9167,54.265,-56.137,1001.8,4.02,-999.0,yes,yes,no,300234067975260,Gy,AOML,AMUNDSEN,North
2020-10-07T22:59:57Z,2020,23,0,281.9583,281.9583,54.267,-56.137,1001.6,4.09,-999.0,yes,yes,no,300234067975260,Gy,AOML,AMUNDSEN,North
2020-10-08T00:00:00Z,2020,0,0,282.0,282.0,54.271,-56.137,1001.6,4.05,-999.0,yes,yes,no,300234067975260,Gy,AOML,AMUNDSEN,North
2020-10-08T01:00:02Z,2020,1,0,282.0417,282.0417,54.276,-56.137,1001.4,4.08,-999.0,yes,yes,no,300234067975260,Gy,AOML,AMUNDSEN,North
2020-10-08T01:59:57Z,2020,2,0,282.0833,282.0833,54.28,-56.135,1001.0,4.05,-999.0,yes,yes,no,300234067975260,Gy,AOML,AMUNDSEN,North
2020-10-08T03:00:00Z,2020,3,0,282.125,282.125,54.285,-56.129,1000.4,4.05,-999.0,yes,yes,no,300234067975260,Gy,AOML,AMUNDSEN,North
2020-10-08T04:00:02Z,2020,4,0,282.1667,282.1667,54.289,-56.121,999.8,4.11,-999.0,yes,yes,no,300234067975260,Gy,AOML,AMUNDSEN,North
2020-10-08T04:59:57Z,2020,5,0,282.2083,282.2083,54.293,-56.111,999.0,4.11,-999.0,yes,yes,no,300234067975260,Gy,AOML,AMUNDSEN,North
2020-10-08T06:00:00Z,2020,6,0,282.25,282.25,54.295,-56.099,998.4,4.05,-999.0,yes,yes,no,300234067975260,Gy,AOML,AMUNDSEN,North
2020-10-08T07:00:02Z,2020,7,0,282.2917,282.2917,54.296,-56.089,997.7,4.03,-999.0,yes,yes,no,300234067975260,Gy,AOML,AMUNDSEN,North
2020-10-08T07:59:57Z,2020,8,0,282.3333,282.3333,54.296,-56.079,997.2,4.03,-999.0,yes,yes,no,300234067975260,Gy,AOML,AMUNDSEN,North
2020-10-08T09:00:00Z,2020,9,0,282.375,282.375,54.297,-56.072,996.5,4.06,-999.0,yes,yes,no,300234067975260,Gy,AOML,AMUNDSEN,North
2020-10-08T10:00:02Z,2020,10,0,282.4167,282.4167,54.299,-56.068,995.6,4.05,-999.0,yes,yes,no,300234067975260,Gy,AOML,AMUNDSEN,North
2020-10-08T10:59:57Z,2020,11,0,282.4583,282.4583,54.302,-56.065,994.5,3.97,-999.0,yes,yes,no,300234067975260,Gy,AOML,AMUNDSEN,North
2020-10-08T12:00:00Z,2020,12,0,282.5,282.5,54.307,-56.062,993.6,3.93,-999.0,yes,yes,no,300234067975260,Gy,AOML,AMUNDSEN,North
2020-10-08T13:00:02Z,2020,13,0,282.5417,282.5417,54.311,-56.059,992.8,3.92,-999.0,yes,yes,no,300234067975260,Gy,AOML,AMUNDSEN,North
2020-10-08T13:59:57Z,2020,14,0,282.5833,282.5833,54.315,-56.053,991.9,3.94,-999.0,yes,yes,no,300234067975260,Gy,AOML,AMUNDSEN,North
2020-10-08T15:00:00Z,2020,15,0,282.625,282.625,54.319,-56.045,991.0,3.98,-999.0,yes,yes,no,300234067975260,Gy,AOML,AMUNDSEN,North
2020-10-08T16:00:02Z,2020,16,0,282.6667,282.6667,54.323,-56.037,990.1,4.02,-999.0,yes,yes,no,300234067975260,Gy,AOML,AMUNDSEN,North
2020-10-08T16:59:57Z,2020,17,0,282.7083,282.7083,54.327,-56.027,989.2,4.04,-999.0,yes,yes,no,300234067975260,Gy,AOML,AMUNDSEN,North
2020-10-08T18:00:00Z,2020,18,0,282.75,282.75,54.331,-56.014,988.0,4.08,-999.0,yes,yes,no,300234067975260,Gy,AOML,AMUNDSEN,North
2020-10-08T19:00:02Z,2020,19,0,282.7917,282.7917,54.334,-56.0,987.2,4.13,-999.0,yes,yes,no,300234067975260,Gy,AOML,AMUNDSEN,North
2020-10-08T19:59:57Z,2020,20,0,282.8333,282.8333,54.336,-55.984,986.0,4.16,-999.0,yes,yes,no,300234067975260,Gy,AOML,AMUNDSEN,North
2020-10-08T21:00:00Z,2020,21,0,282.875,282.875,54.337,-55.969,984.8,4.21,-999.0,yes,yes,no,300234067975260,Gy,AOML,AMUNDSEN,North
2020-10-08T22:00:02Z,2020,22,0,282.9167,282.9167,54.338,-55.956,982.9,4.22,-999.0,yes,yes,no,300234067975260,Gy,AOML,AMUNDSEN,North
2020-10-08T22:59:57Z,2020,23,0,282.9583,282.9583,54.339,-55.944,980.9,4.22,-999.0,yes,yes,no,300234067975260,Gy,AOML,AMUNDSEN,North
2020-10-09T00:00:00Z,2020,0,0,283.0,283.0,54.339,-55.932,978.7,4.21,-999.0,yes,yes,no,300234067975260,Gy,AOML,AMUNDSEN,North
2020-10-09T01:00:02Z,2020,1,0,283.0417,283.0417,54.34,-55.923,976.0,4.21,-999.0,yes,yes,no,300234067975260,Gy,AOML,AMUNDSEN,North
2020-10-09T01:59:57Z,2020,2,0,283.0833,283.0833,54.34,-55.912,973.2,4.19,-999.0,yes,yes,no,300234067975260,Gy,AOML,AMUNDSEN,North
2020-10-09T03:00:00Z,2020,3,0,283.125,283.125,54.34,-55.901,970.4,4.15,-999.0,yes,yes,no,300234067975260,Gy,AOML,AMUNDSEN,North
2020-10-09T04:00:02Z,2020,4,0,283.1667,283.1667,54.339,-55.891,968.7,4.12,-999.0,yes,yes,no,300234067975260,Gy,AOML,AMUNDSEN,North
2020-10-09T04:59:57Z,2020,5,0,283.2083,283.2083,54.338,-55.881,967.2,4.09,-999.0,yes,yes,no,300234067975260,Gy,AOML,AMUNDSEN,North
2020-10-09T06:00:00Z,2020,6,0,283.25,283.25,54.337,-55.872,966.1,4.08,-999.0,yes,yes,no,300234067975260,Gy,AOML,AMUNDSEN,North
2020-10-09T07:00:02Z,2020,7,0,283.2917,283.2917,54.338,-55.862,965.4,4.09,-999.0,yes,yes,no,300234067975260,Gy,AOML,AMUNDSEN,North
2020-10-09T07:59:57Z,2020,8,0,283.3333,283.3333,54.337,-55.851,964.9,4.08,-999.0,yes,yes,no,300234067975260,Gy,AOML,AMUNDSEN,North
2020-10-09T09:00:00Z,2020,9,0,283.375,283.375,54.336,-55.838,964.7,4.06,-999.0,yes,yes,no,300234067975260,Gy,AOML,AMUNDSEN,North
2020-10-09T10:00:02Z,2020,10,0,283.4167,283.4167,54.335,-55.826,964.4,4.05,-999.0,yes,yes,no,300234067975260,Gy,AOML,AMUNDSEN,North
2020-10-09T10:59:57Z,2020,11,0,283.4583,283.4583,54.331,-55.812,964.3,4.04,-999.0,yes,yes,no,300234067975260,Gy,AOML,AMUNDSEN,North
2020-10-09T12:00:00Z,2020,12,0,283.5,283.5,54.327,-55.798,964.5,4.05,-999.0,yes,yes,no,300234067975260,Gy,AOML,AMUNDSEN,North
2020-10-09T13:00:02Z,2020,13,0,283.5417,283.5417,54.321,-55.785,965.0,4.09,-999.0,yes,yes,no,300234067975260,Gy,AOML,AMUNDSEN,North
2020-10-09T13:59:57Z,2020,14,0,283.5833,283.5833,54.313,-55.774,965.8,4.13,-999.0,yes,yes,no,300234067975260,Gy,AOML,AMUNDSEN,North
2020-10-09T15:00:00Z,2020,15,0,283.625,283.625,54.302,-55.761,966.7,4.14,-999.0,yes,yes,no,300234067975260,Gy,AOML,AMUNDSEN,North
2020-10-09T16:00:02Z,2020,16,0,283.6667,283.6667,54.288,-55.747,967.5,4.11,-999.0,yes,yes,no,300234067975260,Gy,AOML,AMUNDSEN,North
2020-10-09T16:59:57Z,2020,17,0,283.7083,283.7083,54.273,-55.736,969.4,4.07,-999.0,yes,yes,no,300234067975260,Gy,AOML,AMUNDSEN,North
2020-10-09T18:00:00Z,2020,18,0,283.75,283.75,54.254,-55.728,970.9,4.03,-999.0,yes,yes,no,300234067975260,Gy,AOML,AMUNDSEN,North
2020-10-09T19:00:02Z,2020,19,0,283.7917,283.7917,54.235,-55.724,972.3,3.98,-999.0,yes,yes,no,300234067975260,Gy,AOML,AMUNDSEN,North
2020-10-09T19:59:57Z,2020,20,0,283.8333,283.8333,54.216,-55.723,973.9,3.97,-999.0,yes,yes,no,300234067975260,Gy,AOML,AMUNDSEN,North
2020-10-09T21:00:00Z,2020,21,0,283.875,283.875,54.199,-55.725,975.2,3.93,-999.0,yes,yes,no,300234067975260,Gy,AOML,AMUNDSEN,North
2020-10-09T22:00:02Z,2020,22,0,283.9167,283.9167,54.182,-55.728,976.6,3.9,-999.0,yes,yes,no,300234067975260,Gy,AOML,AMUNDSEN,North
2020-10-09T22:59:57Z,2020,23,0,283.9583,283.9583,54.167,-55.731,977.9,3.88,-999.0,yes,yes,no,300234067975260,Gy,AOML,AMUNDSEN,North
2020-10-10T00:00:00Z,2020,0,0,284.0,284.0,54.152,-55.732,979.1,3.86,-999.0,yes,yes,no,300234067975260,Gy,AOML,AMUNDSEN,North
2020-10-10T01:00:02Z,2020,1,0,284.0417,284.0417,54.137,-55.732,980.2,3.84,-999.0,yes,yes,no,300234067975260,Gy,AOML,AMUNDSEN,North
2020-10-10T01:59:57Z,2020,2,0,284.0833,284.0833,54.123,-55.73,981.2,3.83,-999.0,yes,yes,no,300234067975260,Gy,AOML,AMUNDSEN,North
2020-10-10T03:00:00Z,2020,3,0,284.125,284.125,54.108,-55.727,982.4,3.81,-999.0,yes,yes,no,300234067975260,Gy,AOML,AMUNDSEN,North
2020-10-10T04:00:02Z,2020,4,0,284.1667,284.1667,54.091,-55.723,983.3,3.79,-999.0,yes,yes,no,300234067975260,Gy,AOML,AMUNDSEN,North
2020-10-10T04:59:57Z,2020,5,0,284.2083,284.2083,54.075,-55.719,984.6,3.78,-999.0,yes,yes,no,300234067975260,Gy,AOML,AMUNDSEN,North
2020-10-10T06:00:00Z,2020,6,0,284.25,284.25,54.057,-55.715,985.6,3.76,-999.0,yes,yes,no,300234067975260,Gy,AOML,AMUNDSEN,North
2020-10-10T07:00:02Z,2020,7,0,284.2917,284.2917,54.039,-55.712,986.7,3.74,-999.0,yes,yes,no,300234067975260,Gy,AOML,AMUNDSEN,North
2020-10-10T07:59:57Z,2020,8,0,284.3333,284.3333,54.021,-55.708,988.0,3.72,-999.0,yes,yes,no,300234067975260,Gy,AOML,AMUNDSEN,North
2020-10-10T09:00:00Z,2020,9,0,284.375,284.375,54.004,-55.706,989.2,3.7,-999.0,yes,yes,no,300234067975260,Gy,AOML,AMUNDSEN,North
2020-10-10T10:00:02Z,2020,10,0,284.4167,284.4167,53.988,-55.708,990.3,3.68,-999.0,yes,yes,no,300234067975260,Gy,AOML,AMUNDSEN,North
2020-10-10T10:59:57Z,2020,11,0,284.4583,284.4583,53.974,-55.714,991.5,3.66,-999.0,yes,yes,no,300234067975260,Gy,AOML,AMUNDSEN,North
2020-10-10T12:00:00Z,2020,12,0,284.5,284.5,53.962,-55.72,992.7,3.64,-999.0,yes,yes,no,300234067975260,Gy,AOML,AMUNDSEN,North
2020-10-10T13:00:02Z,2020,13,0,284.5417,284.5417,53.954,-55.725,993.8,3.62,-999.0,yes,yes,no,300234067975260,Gy,AOML,AMUNDSEN,North
2020-10-10T13:59:57Z,2020,14,0,284.5833,284.5833,53.947,-55.73,995.1,3.62,-999.0,yes,yes,no,300234067975260,Gy,AOML,AMUNDSEN,North
2020-10-10T15:00:00Z,2020,15,0,284.625,284.625,53.941,-55.731,996.2,3.6,-999.0,yes,yes,no,300234067975260,Gy,AOML,AMUNDSEN,North
2020-10-10T16:00:02Z,2020,16,0,284.6667,284.6667,53.936,-55.731,997.1,3.59,-999.0,yes,yes,no,300234067975260,Gy,AOML,AMUNDSEN,North
2020-10-10T16:59:57Z,2020,17,0,284.7083,284.7083,53.931,-55.728,998.2,3.59,-999.0,yes,yes,no,300234067975260,Gy,AOML,AMUNDSEN,North
2020-10-10T18:00:00Z,2020,18,0,284.75,284.75,53.926,-55.723,999.2,3.59,-999.0,yes,yes,no,300234067975260,Gy,AOML,AMUNDSEN,North
2020-10-10T19:00:02Z,2020,19,0,284.7917,284.7917,53.92,-55.719,1000.1,3.58,-999.0,yes,yes,no,300234067975260,Gy,AOML,AMUNDSEN,North